Evansville, IN

9:59 PM CDT on April 26, 2017 (GMT -0500)
Evansville Regional

Weather History for KEVV - March, 2013

Change the Weather History Date:

Saturday, March 30, 2013

  Actual Average Record
Temperature  
Mean Temperature 47 °F 51 °F  
Max Temperature 59 °F 62 °F 83 °F (1986)
Min Temperature 35 °F 39 °F 22 °F (1964)
Degree Days  
Heating Degree Days 18 15  
Month to date heating degree days 771 576  
Since 1 July heating degree days 4134 4150  
Cooling Degree Days 0 0  
Month to date cooling degree days 0 0  
Year to date cooling degree days 0 0  
Moisture  
Dew Point 40 °F    
Average Humidity 76    
Maximum Humidity 100    
Minimum Humidity 51    
Precipitation  
Precipitation 0.22 in 0.14 in 2.65 in (1985)
Month to date precipitation 4.07 4.09  
Year to date precipitation 13.60 10.36  
Snow  
Snow 0.00 in 0.00 in 1.70 in (1987)
Month to date snowfall T 1.0  
Since 1 July snowfall 12.3 11.7  
Snow Depth 0.00 in    
Sea Level Pressure  
Sea Level Pressure 30.13 in    
Wind  
Wind Speed 4 mph (SE)    
Max Wind Speed 14 mph    
Max Gust Speed 18 mph    
Visibility 5 miles    
Events Fog , Rain    
T = Trace of Precipitation, MM = Missing Value Source: NWS Daily Summary

Daily Weather History Graph

Daily Weather History Graph

Search for Another Location

Airport or City:

Trip Planner

Search our weather history database for the weather conditions in past years. The results will help you decide how hot, cold, wet, or windy it might be!

Date:

Astronomy

Mar. 30, 2013 Rise Set
Actual Time 6:37 AM CDT 7:11 PM CDT
Civil Twilight 6:11 AM CDT 7:38 PM CDT
Nautical Twilight 5:40 AM CDT 8:09 PM CDT
Astronomical Twilight 5:08 AM CDT 8:41 PM CDT
Moon 11:13 PM CDT (3/30) 8:36 AM CDT (3/30)
Length of Visible Light 13h 26m
Length of Day
12h 33m
Waning Gibbous, 86% of the Moon is Illuminated
Mar 30
Waning Gibbous
Apr 2
Last Quarter
Apr 10
New
Apr 18
First Quarter
Apr 25
Full

Hourly Weather History & Observations

Time (CDT) Temp. Windchill Dew Point Humidity Pressure Visibility Wind Dir Wind Speed Gust Speed Precip Events Conditions
12:16 AM 39.2 °F - 37.4 °F 93% 30.23 in 0.2 mi Calm Calm - N/A Fog Fog
12:54 AM 36.0 °F - 35.1 °F 97% 30.24 in 0.2 mi Calm Calm - N/A Fog Fog
1:54 AM 36.0 °F - 35.1 °F 97% 30.24 in 0.2 mi Calm Calm - N/A Fog Fog
2:54 AM 35.1 °F - 34.0 °F 96% 30.23 in 0.2 mi Calm Calm - N/A Fog Fog
3:54 AM 36.0 °F - 34.0 °F 93% 30.22 in 0.2 mi Calm Calm - N/A Fog Fog
4:54 AM 36.0 °F - 34.0 °F 93% 30.23 in 0.2 mi Calm Calm - N/A Fog Fog
5:54 AM 36.0 °F - 34.0 °F 93% 30.24 in 0.2 mi Calm Calm - N/A Fog Fog
6:31 AM 35.6 °F 31.7 °F 33.8 °F 93% 30.22 in 0.2 mi NE 4.6 mph - N/A Fog Fog
6:54 AM 36.0 °F 32.1 °F 34.0 °F 93% 30.22 in 0.2 mi ENE 4.6 mph - N/A Fog Fog
7:54 AM 37.0 °F 34.5 °F 35.1 °F 93% 30.22 in 0.2 mi ENE 3.5 mph - N/A Fog Fog
8:54 AM 39.0 °F - 37.9 °F 96% 30.22 in 0.2 mi Calm Calm - N/A Fog Fog
9:23 AM 41.0 °F - 39.2 °F 93% 30.21 in 0.2 mi Calm Calm - N/A Fog Fog
9:54 AM 43.0 °F 41.3 °F 41.0 °F 93% 30.21 in 0.5 mi Variable 3.5 mph - N/A Fog Fog
10:03 AM 42.8 °F 39.3 °F 41.0 °F 93% 30.20 in 1.5 mi East 5.8 mph - N/A   Overcast
10:10 AM 42.8 °F 40.1 °F 41.0 °F 93% 30.20 in 3.0 mi ESE 4.6 mph - N/A   Overcast
10:50 AM 46.4 °F 44.3 °F 42.8 °F 87% 30.18 in 7.0 mi ESE 4.6 mph - N/A   Partly Cloudy
10:54 AM 48.0 °F - 42.1 °F 80% 30.19 in 8.0 mi SE 6.9 mph - N/A   Partly Cloudy
11:03 AM 48.2 °F - 42.8 °F 82% 30.18 in 9.0 mi Variable 3.5 mph - N/A   Mostly Cloudy
11:26 AM 50.0 °F - 41.0 °F 71% 30.17 in 10.0 mi SE 10.4 mph - N/A   Clear
11:54 AM 51.1 °F - 41.0 °F 68% 30.17 in 10.0 mi ESE 9.2 mph - N/A   Clear
12:54 PM 54.0 °F - 41.0 °F 62% 30.14 in 10.0 mi SSE 6.9 mph - N/A   Clear
1:54 PM 57.0 °F - 42.1 °F 57% 30.10 in 10.0 mi SE 9.2 mph - N/A   Clear
2:54 PM 57.9 °F - 39.9 °F 51% 30.06 in 10.0 mi SSE 9.2 mph - N/A   Clear
3:54 PM 57.9 °F - 39.9 °F 51% 30.04 in 10.0 mi SSE 10.4 mph 17.3 mph N/A   Partly Cloudy
4:54 PM 57.0 °F - 39.9 °F 53% 30.02 in 10.0 mi South 10.4 mph - N/A   Clear
5:54 PM 55.0 °F - 41.0 °F 59% 30.01 in 10.0 mi South 6.9 mph - N/A   Clear
6:54 PM 54.0 °F - 41.0 °F 62% 30.00 in 10.0 mi South 4.6 mph - N/A   Overcast
7:54 PM 54.0 °F - 42.1 °F 64% 29.98 in 10.0 mi SSE 5.8 mph - 0.00 in Rain Light Rain
8:54 PM 50.0 °F - 46.0 °F 86% 29.98 in 6.0 mi Calm Calm - 0.05 in Rain Light Rain
9:54 PM 48.9 °F - 46.9 °F 93% 29.97 in 4.0 mi Calm Calm - 0.07 in Rain Rain
10:54 PM 48.9 °F - 46.9 °F 93% 29.94 in 5.0 mi Calm Calm - 0.07 in Rain Light Rain
11:38 PM 48.2 °F - 46.4 °F 93% 29.93 in 4.0 mi West 3.5 mph - 0.00 in   Overcast
11:52 PM 48.2 °F - 46.4 °F 93% 29.93 in 2.5 mi West 3.5 mph - 0.00 in Rain Light Rain
11:54 PM 48.9 °F - 46.9 °F 93% 29.93 in 2.5 mi WNW 3.5 mph - 0.01 in Rain Light Rain